Location: Gleizolles
(44.4833°N, 6.7667°E)
Time: 11:44:45
(UTC+00:00)

Cosmos 1190 Rocket - Pass Details

Date: 09 April 2020
Orbit: 757 x 779 km, 74.1° (Epoch: 06 June)

Event Time Altitude Azimuth Distance (km) Brightness Sun altitude
Rises 18:36:30 0° 178° (S) 3,246 7.0 -5.3°
Reaches altitude 10° 18:39:00 10° 171° (S) 2,322 6.2 -5.7°
Maximum altitude 18:43:53 40° 103° (ESE) 1,137 4.5 -6.6°
Drops below altitude 10° 18:48:47 10° 35° (NE) 2,327 6.3 -7.4°
Sets 18:51:17 0° 28° (NNE) 3,255 7.2 -7.8°
